Home > Weather > Huntsville > Past weeks

Flag for USA Past Weather in Huntsville, Alabama, USA — Yesterday and Last 2 Weeks

Now
74 °F

Clear.


Feels Like: 73 °F
Forecast: 73 / 91 °F
Wind: No wind

Location: Huntsville International / Jones Field

Current Time: Jun 27, 2016 at 4:39:22 AM

Latest Report: Jun 27, 2016 at 3:53 AM


Visibility: 10 mi

Pressure: 30.05 "Hg

Humidity: 88%

Dew Point: 70 °F

Location of HuntsvilleLocation

Past Weather in Huntsville — Graph

°F

Huntsville Temperature Yesterday

Maximum temperature yesterday: 99 °F (at 2:53 PM)
Minimum temperature yesterday: 74 °F (at 1:53 AM)
Average temperature yesterday: 82 °F

High & Low Weather Summary for the Past Weeks

 TemperatureHumidityPressure
High99 °F (Jun 26, 2:53 PM)90% (Jun 13, 4:53 AM)30.32 "Hg (Jun 13, 4:53 AM)
Low65 °F (Jun 20, 2:53 AM)30% (Jun 20, 5:53 PM)29.80 "Hg (Jun 17, 2:53 PM)
Average82 °F63%30.03 "Hg
* Reported Jun 12 2:53 AM — Jun 27 2:53 AM, Huntsville, Weather by CustomWeather, © 2016

Note: Actual official high and low records may vary slightly from our data, if they occured in-between our weather recording intervals... More about our weather records

Advertising

Huntsville Weather History for the Previous 24 Hours

Scroll right to see more
 ConditionsComfort  
Time TempWeatherWind HumidityBarometerVisibility
2:53 AM
Mon, Jun 27
74 °FClear.3 mph88%30.04 "Hg10 mi
1:53 AM75 °FClear.5 mph85%30.07 "Hg10 mi
12:53 AM74 °FClear.No wind88%30.08 "Hg10 mi
11:53 PM
Sun, Jun 26
76 °FPassing clouds.No wind85%30.07 "Hg10 mi
10:53 PM76 °FPassing clouds.No wind85%30.06 "Hg10 mi
9:53 PM76 °FPassing clouds.3 mph85%30.06 "Hg10 mi
8:53 PM76 °FScattered clouds.7 mph82%30.05 "Hg10 mi
7:53 PM77 °FPartly sunny.6 mph77%30.04 "Hg10 mi
6:53 PM77 °FBroken clouds.6 mph79%30.04 "Hg10 mi
6:00 PM74 °FThunderstorms. Overcast.5 mph82%30.08 "Hg1 mi
4:53 PM93 °FPartly sunny.5 mph44%30.01 "Hg10 mi
3:53 PM97 °FScattered clouds.3 mph35%30.02 "Hg10 mi
2:53 PM99 °FScattered clouds.N/A33%30.03 "Hg10 mi
1:53 PM95 °FScattered clouds.No wind40%30.06 "Hg10 mi
12:53 PM94 °FPassing clouds.7 mph43%30.09 "Hg10 mi
11:53 AM92 °FSunny.5 mph47%30.11 "Hg10 mi
10:53 AM88 °FSunny.3 mph54%30.12 "Hg10 mi
9:53 AM86 °FPassing clouds.9 mph57%30.13 "Hg10 mi
8:53 AM82 °FScattered clouds.6 mph63%30.13 "Hg10 mi
7:53 AM77 °FBroken clouds.3 mph77%30.13 "Hg10 mi
6:53 AM75 °FPartly sunny.5 mph82%30.11 "Hg10 mi
5:53 AM74 °FPassing clouds.No wind82%30.09 "Hg10 mi
4:53 AM74 °FClear.No wind82%30.09 "Hg10 mi
Weather by CustomWeather, © 2016

See weather overviewHow to use our weather pages